Measurements were made at the meteorological tower in Juelich (50.90 N / 6.40 E) at an altitude of 20 m,
"Instrument: Carbon Dioxide Isotope Analyzer (CCIA), Los Gatos Inc.",
Responsible PI: Dr. Marc von Hobe; Forschungszentrum Juelich GmbH; IEK-7; email: m.von.hobe@fz-juelich.de,
NaN or negative numbers are fill values (i.e. no valid measurements were made at that time),
Uncertainties are given as the 1-sigma standard deviation over each 10 minute intervals. In each interval ~600 individual measurements are carried out so that the standard error of the mean is approximately sigma/sqrt(600).,
time_utc,CO2_ppm,stdev_CO2_ppm,H2O_ppm,stdev_H2O_ppm
"2014-11-01 00:05:00 000",414.655,1.58357,12460.1,86.3358
"2014-11-01 00:15:00 000",412.667,1.56469,12402.2,65.1717
"2014-11-01 00:25:00 000",413.989,1.67607,12369.2,51.9240
"2014-11-01 00:35:00 000",413.333,1.52755,12370.5,60.8848
"2014-11-01 00:45:00 000",413.139,1.26261,12317.9,42.6096
"2014-11-01 00:55:00 000",412.666,1.31129,12303.4,37.8044
"2014-11-01 01:05:00 000",411.630,0.885027,12259.3,36.2191
"2014-11-01 01:15:00 000",410.840,1.12132,12206.8,40.2819
"2014-11-01 01:25:00 000",410.461,0.758522,12170.9,38.4257
"2014-11-01 01:35:00 000",410.980,0.853297,12166.2,43.1715
"2014-11-01 01:45:00 000",411.024,0.770131,12156.0,34.8468
"2014-11-01 01:55:00 000",410.948,0.809207,12126.7,37.6963
"2014-11-01 02:05:00 000",410.771,0.772315,12109.1,38.8565
"2014-11-01 02:15:00 000",410.751,0.744067,12091.6,29.1346
"2014-11-01 02:25:00 000",411.859,0.627084,12112.3,26.3964
"2014-11-01 02:35:00 000",411.859,0.710360,12097.1,30.5581
"2014-11-01 02:45:00 000",411.874,0.806162,12098.2,27.8788
"2014-11-01 02:55:00 000",410.958,0.731945,12050.0,34.2242
"2014-11-01 03:05:00 000",411.866,0.833892,12050.9,29.8256
"2014-11-01 03:15:00 000",412.186,0.735575,12073.3,50.2913
"2014-11-01 03:25:00 000",412.334,0.718639,12021.6,28.6222
"2014-11-01 03:35:00 000",413.016,0.778329,12025.3,24.9046
"2014-11-01 03:45:00 000",414.025,0.739098,12045.2,30.6731
"2014-11-01 03:55:00 000",414.119,0.990053,12044.3,38.0924
"2014-11-01 04:05:00 000",414.819,1.14653,12059.3,46.0438
"2014-11-01 04:15:00 000",414.322,0.720109,12046.6,36.4486
"2014-11-01 04:25:00 000",414.670,0.721113,12041.1,38.5463
"2014-11-01 04:35:00 000",414.068,0.858108,12026.4,35.7055
"2014-11-01 04:45:00 000",414.716,0.767756,12050.7,28.5168
"2014-11-01 04:55:00 000",415.090,0.724076,12055.3,27.1895
"2014-11-01 05:05:00 000",414.319,0.802170,12033.1,37.4520
"2014-11-01 05:15:00 000",413.880,0.675390,11989.9,31.8401
"2014-11-01 05:25:00 000",414.306,0.698704,11969.6,28.7442
"2014-11-01 05:35:00 000",413.593,0.961099,11950.1,36.1697
"2014-11-01 05:45:00 000",413.316,0.758791,11926.9,30.6377
"2014-11-01 05:55:00 000",416.561,3.15417,11993.0,76.6035
"2014-11-01 06:05:00 000",417.525,3.03005,12042.7,45.0304
"2014-11-01 06:15:00 000",415.463,1.66320,12015.0,43.3063
"2014-11-01 06:25:00 000",415.299,0.802914,12003.6,28.4960
"2014-11-01 06:35:00 000",414.629,0.968916,11981.3,45.0394
"2014-11-01 06:45:00 000",414.533,0.627421,11985.0,33.4145
"2014-11-01 06:55:00 000",414.254,0.612097,11996.0,29.9179
"2014-11-01 07:05:00 000",413.905,0.677085,12020.9,32.9786
"2014-11-01 07:15:00 000",413.347,0.640297,12040.6,39.3104
"2014-11-01 07:25:00 000",413.593,0.642880,12042.5,33.7259
"2014-11-01 07:35:00 000",412.884,0.750869,12039.3,63.4062
"2014-11-01 07:45:00 000",413.138,0.571232,12124.9,53.8127
"2014-11-01 07:55:00 000",413.145,0.607263,12189.1,61.9418
"2014-11-01 08:05:00 000",412.990,0.624662,12263.1,64.2965
"2014-11-01 08:15:00 000",413.559,0.606261,12337.4,82.9011
"2014-11-01 08:25:00 000",413.029,0.616900,12430.4,96.4082
"2014-11-01 08:35:00 000",413.381,0.657561,12497.9,75.8194
"2014-11-01 08:45:00 000",412.379,0.695122,12612.7,93.6564
"2014-11-01 08:55:00 000",411.947,0.693804,12567.2,80.1777
"2014-11-01 09:05:00 000",411.234,0.687452,12579.0,155.855
"2014-11-01 09:15:00 000",410.269,0.735277,12685.3,59.9611
"2014-11-01 09:25:00 000",408.953,0.729646,12772.5,97.8910
"2014-11-01 09:35:00 000",408.138,0.824117,12694.9,89.8251
"2014-11-01 09:45:00 000",407.523,0.963857,12997.2,120.299
"2014-11-01 09:55:00 000",406.925,0.669049,13134.0,165.132
"2014-11-01 10:05:00 000",406.572,0.793129,13034.1,65.0269
"2014-11-01 10:15:00 000",405.387,0.765622,13124.7,85.1796
"2014-11-01 10:25:00 000",404.681,0.757043,13312.9,114.344
"2014-11-01 10:35:00 000",404.730,0.728912,13751.7,117.561
"2014-11-01 10:45:00 000",404.773,0.706663,13883.8,101.100
"2014-11-01 10:55:00 000",404.419,0.739693,14087.2,124.839
"2014-11-01 11:05:00 000",403.674,0.849903,14137.6,138.974
"2014-11-01 11:15:00 000",402.412,0.791921,14158.4,129.116
"2014-11-01 11:25:00 000",400.870,0.875956,14284.4,144.398
"2014-11-01 11:35:00 000",399.718,0.618173,14306.5,89.8105
"2014-11-01 11:45:00 000",399.673,0.621620,14654.8,291.560
"2014-11-01 11:55:00 000",400.335,0.609654,14854.3,145.549
"2014-11-01 12:05:00 000",399.259,0.770329,15064.1,107.951
"2014-11-01 12:15:00 000",398.964,0.756902,15288.2,201.741
"2014-11-01 12:25:00 000",400.024,0.833101,15460.0,158.832
"2014-11-01 12:35:00 000",400.623,0.653038,15652.7,111.034
"2014-11-01 12:45:00 000",400.889,0.586123,15704.0,124.831
"2014-11-01 12:55:00 000",400.512,0.944254,15721.0,167.001
"2014-11-01 13:05:00 000",399.653,1.17299,15815.8,212.443
"2014-11-01 13:15:00 000",399.059,1.75836,15361.5,327.165
"2014-11-01 13:25:00 000",397.415,0.628179,15093.5,161.589
"2014-11-01 13:35:00 000",398.118,0.927182,15093.8,223.299
"2014-11-01 13:45:00 000",399.050,0.717413,14793.3,145.331
"2014-11-01 13:55:00 000",400.272,0.860683,14544.3,215.829
"2014-11-01 14:05:00 000",399.869,0.692055,14692.4,168.754
"2014-11-01 14:15:00 000",399.455,0.980329,14886.3,256.593
"2014-11-01 14:25:00 000",398.796,0.883373,14845.2,153.945
"2014-11-01 14:35:00 000",398.410,0.823311,14994.9,209.021
"2014-11-01 14:45:00 000",397.809,0.714516,14929.0,109.218
"2014-11-01 14:55:00 000",398.804,0.712493,14853.6,142.971
"2014-11-01 15:05:00 000",399.635,0.564871,14741.4,113.618
"2014-11-01 15:15:00 000",400.127,0.702965,14879.7,77.3641
"2014-11-01 15:25:00 000",399.857,0.803452,15108.7,104.523
"2014-11-01 15:35:00 000",401.487,1.18874,15157.9,68.2117
"2014-11-01 15:45:00 000",402.143,0.857556,15163.9,91.8478
"2014-11-01 15:55:00 000",402.610,0.666494,14850.1,176.192
"2014-11-01 16:05:00 000",403.598,0.888306,14393.2,204.342
"2014-11-01 16:15:00 000",403.953,0.760750,13850.7,205.010
"2014-11-01 16:25:00 000",403.678,1.09767,13544.0,191.784
"2014-11-01 16:35:00 000",405.339,0.985838,13614.7,154.642
"2014-11-01 16:45:00 000",407.643,1.10181,13596.2,139.494
"2014-11-01 16:55:00 000",406.714,0.734995,13413.7,108.119
"2014-11-01 17:05:00 000",405.517,0.788775,12924.3,166.494
"2014-11-01 17:15:00 000",406.631,0.814115,13152.5,125.973
"2014-11-01 17:25:00 000",408.291,0.926226,13214.9,109.803
"2014-11-01 17:35:00 000",408.846,0.790204,13191.6,91.3853
"2014-11-01 17:45:00 000",409.390,0.895797,13348.4,65.6888
"2014-11-01 17:55:00 000",409.766,2.44236,13557.2,172.674
"2014-11-01 18:05:00 000",411.595,2.91788,13573.4,156.274
"2014-11-01 18:15:00 000",412.719,3.45910,13366.7,161.351
"2014-11-01 18:25:00 000",415.526,2.11294,13440.9,83.9026
"2014-11-01 18:35:00 000",409.144,2.12431,13289.1,84.1324
"2014-11-01 18:45:00 000",406.843,1.54882,13111.3,64.8933
"2014-11-01 18:55:00 000",412.568,9.85393,13145.4,60.5062
"2014-11-01 19:05:00 000",413.077,8.71825,12903.1,598.460
"2014-11-01 19:15:00 000",408.528,0.776095,12308.6,229.403
"2014-11-01 19:25:00 000",409.654,0.597924,12061.7,119.331
"2014-11-01 19:35:00 000",409.921,0.674340,12111.5,135.475
"2014-11-01 19:45:00 000",410.402,0.591261,12050.4,112.414
"2014-11-01 19:55:00 000",410.222,1.00818,11948.1,222.638
"2014-11-01 20:05:00 000",415.496,4.61390,12088.6,189.390
"2014-11-01 20:15:00 000",419.494,3.24054,12377.7,143.531
"2014-11-01 20:25:00 000",422.558,2.43693,12515.2,131.478
"2014-11-01 20:35:00 000",421.410,1.45476,12471.7,95.2805
"2014-11-01 20:45:00 000",421.840,1.05441,12509.2,192.299
"2014-11-01 20:55:00 000",421.717,1.57474,12442.9,129.417
"2014-11-01 21:05:00 000",416.775,1.53292,12341.8,88.6318
"2014-11-01 21:15:00 000",416.542,1.64882,12189.5,55.0442
"2014-11-01 21:25:00 000",416.012,2.36454,12082.7,41.0943
"2014-11-01 21:35:00 000",415.625,0.843460,11845.0,85.6700
"2014-11-01 21:45:00 000",415.764,1.74429,11998.5,68.2491
"2014-11-01 21:55:00 000",432.304,2.83957,12321.0,93.0088
"2014-11-01 22:05:00 000",427.366,3.84465,12395.4,67.9092
"2014-11-01 22:15:00 000",421.862,4.78244,12510.4,243.573
"2014-11-01 22:25:00 000",422.352,4.51155,12799.8,111.549
"2014-11-01 22:35:00 000",423.474,2.94094,13211.6,160.909
"2014-11-01 22:45:00 000",420.196,2.75346,13492.8,259.992
"2014-11-01 22:55:00 000",421.516,1.52186,13500.2,86.4968
"2014-11-01 23:05:00 000",423.289,1.09866,13590.0,149.315
"2014-11-01 23:15:00 000",422.772,1.61627,13648.6,54.4784
"2014-11-01 23:25:00 000",423.088,2.40147,13557.8,68.8696
"2014-11-01 23:35:00 000",425.237,1.46077,13703.6,172.831
"2014-11-01 23:45:00 000",427.063,2.03098,13779.4,152.219
"2014-11-01 23:55:00 000",426.040,1.34180,14020.3,57.5584
"2014-11-02 00:05:00 000",427.900,1.66903,13848.5,85.9457
"2014-11-02 00:15:00 000",425.866,0.877271,13793.0,41.5050
"2014-11-02 00:25:00 000",425.617,0.900679,13806.0,66.8993
"2014-11-02 00:35:00 000",427.260,0.914316,13701.5,56.7173
"2014-11-02 00:45:00 000",427.786,0.848522,13616.4,56.7999
"2014-11-02 00:55:00 000",428.119,1.03062,13633.6,41.8651
"2014-11-02 01:05:00 000",428.143,1.17753,13609.9,36.6791
"2014-11-02 01:15:00 000",426.765,0.969292,13696.5,50.0109
"2014-11-02 01:25:00 000",427.316,1.03119,13679.0,27.4695
"2014-11-02 01:35:00 000",427.262,0.833574,13734.6,40.5732
"2014-11-02 01:45:00 000",426.431,0.831134,13786.7,36.0864
"2014-11-02 01:55:00 000",425.955,0.641916,13793.7,38.0801
"2014-11-02 02:05:00 000",426.304,0.938566,13809.8,27.1461
"2014-11-02 02:15:00 000",425.981,1.44730,13879.7,65.2828
"2014-11-02 02:25:00 000",425.524,1.25462,13905.2,32.9554
"2014-11-02 02:35:00 000",425.671,1.04410,13904.9,30.8310
"2014-11-02 02:45:00 000",425.310,0.720710,13885.0,36.2740
"2014-11-02 02:55:00 000",425.413,0.785455,13920.4,26.4125
"2014-11-02 03:05:00 000",425.548,0.784888,13961.3,31.1166
"2014-11-02 03:15:00 000",425.568,0.804808,13948.5,27.4457
"2014-11-02 03:25:00 000",426.278,0.653086,13880.1,59.6331
"2014-11-02 03:35:00 000",427.085,0.689241,13904.0,71.9321
"2014-11-02 03:45:00 000",427.216,0.590635,13938.6,51.9543
"2014-11-02 03:55:00 000",425.954,0.894465,14000.9,62.5878
"2014-11-02 04:05:00 000",426.596,0.842235,13994.5,46.1014
"2014-11-02 04:15:00 000",426.366,0.855751,14115.8,46.8006
"2014-11-02 04:25:00 000",426.585,1.14176,14113.0,45.4622
"2014-11-02 04:35:00 000",426.212,4.19548,14136.6,195.558
"2014-11-02 04:45:00 000",428.907,1.11409,14046.8,35.3274
"2014-11-02 04:55:00 000",429.782,1.47939,14092.5,85.3602
"2014-11-02 05:05:00 000",430.140,2.37932,14128.0,105.795
"2014-11-02 05:15:00 000",429.328,1.78445,14207.2,79.8504
"2014-11-02 05:25:00 000",428.738,1.60321,14347.7,124.168
"2014-11-02 05:35:00 000",420.741,5.27319,14628.8,213.637
"2014-11-02 05:45:00 000",419.591,5.18208,14611.3,166.417
"2014-11-02 05:55:00 000",415.292,2.30789,14723.0,68.6193
"2014-11-02 06:05:00 000",417.588,2.58448,14667.9,61.7198
"2014-11-02 06:15:00 000",419.857,2.96014,14688.8,112.719
"2014-11-02 06:25:00 000",424.323,2.55627,14677.2,91.6054
"2014-11-02 06:35:00 000",429.763,3.01271,14511.7,104.624
"2014-11-02 06:45:00 000",431.630,1.96348,14283.2,82.9379
"2014-11-02 06:55:00 000",430.646,2.27810,14145.1,67.9704
"2014-11-02 07:05:00 000",431.830,3.43404,14169.8,76.0139
"2014-11-02 07:15:00 000",430.009,4.20913,14637.2,320.262
"2014-11-02 07:25:00 000",430.628,1.92363,14727.0,353.934
"2014-11-02 07:35:00 000",430.041,1.09796,14326.1,38.5608
"2014-11-02 07:45:00 000",427.103,1.62062,14115.5,59.7490
"2014-11-02 07:55:00 000",426.423,1.56143,14298.5,56.9572
"2014-11-02 08:05:00 000",426.162,1.53916,14512.0,178.178
"2014-11-02 08:15:00 000",423.638,1.49772,14463.8,149.365
"2014-11-02 08:25:00 000",421.626,0.922747,14375.6,72.7194
"2014-11-02 08:35:00 000",419.207,0.889861,14248.4,86.0044
"2014-11-02 08:45:00 000",417.764,0.685178,14096.9,52.7995
"2014-11-02 08:55:00 000",417.285,0.614046,13936.6,102.062
"2014-11-02 09:05:00 000",418.052,0.880849,13954.7,89.5246
"2014-11-02 09:15:00 000",418.893,0.769028,14094.0,77.7943
"2014-11-02 09:25:00 000",417.201,0.880005,14183.3,114.056
"2014-11-02 09:35:00 000",410.947,3.57688,13435.0,593.555
"2014-11-02 09:45:00 000",402.998,1.49288,12337.6,241.402
"2014-11-02 09:55:00 000",402.572,1.56378,12172.9,241.674
"2014-11-02 10:05:00 000",409.369,3.00117,11899.4,143.576
"2014-11-02 10:15:00 000",410.022,1.49891,12118.4,198.762
"2014-11-02 10:25:00 000",407.595,1.49152,11813.0,141.719
"2014-11-02 10:35:00 000",401.002,2.12865,11831.7,213.320
"2014-11-02 10:45:00 000",400.322,1.06820,12010.7,208.937
"2014-11-02 10:55:00 000",400.804,1.06498,11975.5,104.586
"2014-11-02 11:05:00 000",399.365,0.738529,12045.3,180.863
"2014-11-02 11:15:00 000",398.690,0.712623,12186.1,225.449
"2014-11-02 11:25:00 000",398.607,0.756914,12157.6,167.881
"2014-11-02 11:35:00 000",398.937,0.705188,12184.0,159.629
"2014-11-02 11:45:00 000",399.897,1.22591,12196.3,142.321
"2014-11-02 11:55:00 000",398.043,1.27770,12432.1,214.185
"2014-11-02 12:05:00 000",398.630,1.10274,12490.0,215.896
"2014-11-02 12:15:00 000",397.825,1.33446,12348.0,214.707
"2014-11-02 12:25:00 000",396.170,1.13340,12409.5,162.822
"2014-11-02 12:35:00 000",403.479,4.16374,12735.5,150.073
"2014-11-02 12:45:00 000",404.000,2.42077,12773.1,141.426
"2014-11-02 12:55:00 000",404.704,1.33141,12985.0,163.703
"2014-11-02 13:05:00 000",397.925,2.67249,13035.3,117.110
"2014-11-02 13:15:00 000",395.500,1.01011,13183.4,137.700
"2014-11-02 13:25:00 000",395.822,0.758131,13443.7,111.643
"2014-11-02 13:35:00 000",396.652,1.73736,13521.5,89.0725
"2014-11-02 13:45:00 000",403.146,3.27794,13686.5,123.792
"2014-11-02 13:55:00 000",405.369,2.36543,13772.6,74.8363
"2014-11-02 14:05:00 000",398.469,2.69837,13728.2,63.4856
"2014-11-02 14:15:00 000",395.379,1.06226,13940.1,108.189
"2014-11-02 14:25:00 000",396.077,1.09583,13973.3,82.3580
"2014-11-02 14:35:00 000",397.054,1.01650,14075.7,91.1970
"2014-11-02 14:45:00 000",396.347,1.02152,14059.2,55.6324
"2014-11-02 14:55:00 000",396.310,0.560195,14090.0,55.6645
"2014-11-02 15:05:00 000",396.733,0.500251,14092.0,34.7347
"2014-11-02 15:15:00 000",397.307,0.668782,14130.3,52.8815
"2014-11-02 15:25:00 000",398.141,0.516975,14076.9,45.3829
"2014-11-02 15:35:00 000",398.822,0.768565,14160.0,42.9595
"2014-11-02 15:45:00 000",399.825,0.602616,14191.3,26.4416
"2014-11-02 15:55:00 000",400.545,0.554563,14194.3,31.2226
"2014-11-02 16:05:00 000",400.952,0.615357,14202.2,25.3634
"2014-11-02 16:15:00 000",402.663,0.785439,14296.8,50.6787
"2014-11-02 16:25:00 000",404.232,0.850920,14379.4,56.5340
"2014-11-02 16:35:00 000",405.355,1.03175,14441.8,53.2694
"2014-11-02 16:45:00 000",405.798,0.800874,14508.6,35.9845
"2014-11-02 16:55:00 000",405.791,0.646230,14538.3,44.7522
"2014-11-02 17:05:00 000",405.507,0.752610,14527.2,42.3241
"2014-11-02 17:15:00 000",405.279,0.545518,14575.7,33.9138
"2014-11-02 17:25:00 000",405.326,0.540077,14582.3,28.8716
"2014-11-02 17:35:00 000",405.447,0.582478,14622.2,45.2196
"2014-11-02 17:45:00 000",405.416,0.670321,14683.0,39.6684
"2014-11-02 17:55:00 000",405.815,0.720048,14699.7,51.0439
"2014-11-02 18:05:00 000",406.575,0.617413,14720.1,36.6245
"2014-11-02 18:15:00 000",407.034,0.546343,14715.9,39.1191
"2014-11-02 18:25:00 000",407.717,0.551751,14700.3,26.6240
"2014-11-02 18:35:00 000",407.768,0.590041,14734.0,36.5284
"2014-11-02 18:45:00 000",407.831,0.621947,14750.5,38.4763
"2014-11-02 18:55:00 000",408.562,0.610971,14773.9,30.8009
"2014-11-02 19:05:00 000",408.062,0.885977,14826.4,32.9473
"2014-11-02 19:15:00 000",406.885,1.37354,14871.3,47.3479
"2014-11-02 19:25:00 000",402.846,1.93779,15057.9,88.4466
"2014-11-02 19:35:00 000",400.225,1.49573,15679.0,156.210
"2014-11-02 19:45:00 000",398.109,0.813432,15806.0,87.2172
"2014-11-02 19:55:00 000",396.016,1.20752,15596.0,48.2720
"2014-11-02 20:05:00 000",394.106,0.815223,15472.8,47.2195
"2014-11-02 20:15:00 000",393.760,0.849650,15451.7,30.4876
"2014-11-02 20:25:00 000",394.005,0.641345,15500.0,38.0564
"2014-11-02 20:35:00 000",395.235,0.612492,15570.5,58.1368
"2014-11-02 20:45:00 000",395.321,0.688732,15307.4,131.132
"2014-11-02 20:55:00 000",395.788,0.783770,14963.6,85.7725
"2014-11-02 21:05:00 000",396.388,0.574531,14799.2,47.4609
"2014-11-02 21:15:00 000",396.548,0.635661,15014.1,51.9690
"2014-11-02 21:25:00 000",397.473,0.592909,14924.0,63.4198
"2014-11-02 21:35:00 000",398.862,0.976348,14921.0,49.7145
"2014-11-02 21:45:00 000",402.255,1.11035,15006.1,62.1277
"2014-11-02 21:55:00 000",405.501,0.774808,15153.1,135.425
"2014-11-02 22:05:00 000",405.233,0.824676,15523.2,112.830
"2014-11-02 22:15:00 000",405.915,0.777188,15578.1,58.4359
"2014-11-02 22:25:00 000",407.072,0.711738,15008.0,216.559
"2014-11-02 22:35:00 000",407.559,1.32384,14883.8,198.867
"2014-11-02 22:45:00 000",407.930,2.12373,14551.6,157.328
"2014-11-02 22:55:00 000",406.107,2.24741,14705.8,92.1665
"2014-11-02 23:05:00 000",407.172,3.26176,14769.5,173.015
"2014-11-02 23:15:00 000",401.537,1.17823,15257.1,101.507
"2014-11-02 23:25:00 000",400.290,1.01644,15599.6,109.248
"2014-11-02 23:35:00 000",399.297,0.805008,15711.2,48.7396
"2014-11-02 23:45:00 000",398.636,0.630158,15957.8,103.609
"2014-11-02 23:55:00 000",398.325,0.638840,16094.1,50.0124
"2014-11-03 00:05:00 000",398.281,0.577915,15790.1,68.7249
"2014-11-03 00:15:00 000",398.283,0.599574,15338.3,152.648
"2014-11-03 00:25:00 000",397.839,0.662020,14963.8,76.4335
"2014-11-03 00:35:00 000",397.543,0.801157,14918.8,51.0298
"2014-11-03 00:45:00 000",397.267,0.572206,14887.8,32.1472
"2014-11-03 00:55:00 000",397.233,0.579660,14864.7,52.7378
"2014-11-03 01:05:00 000",397.511,0.851397,14655.8,75.4526
"2014-11-03 01:15:00 000",398.187,0.956835,14609.4,53.4953
"2014-11-03 01:25:00 000",398.040,0.571427,14528.0,60.3734
"2014-11-03 01:35:00 000",397.276,0.664657,14396.3,54.9926
"2014-11-03 01:45:00 000",397.230,0.597425,14365.9,48.0891
"2014-11-03 01:55:00 000",396.498,0.904866,14177.3,120.337
"2014-11-03 02:05:00 000",395.819,0.801881,13954.7,36.5923
"2014-11-03 02:15:00 000",396.486,0.936098,13873.2,74.0455
"2014-11-03 02:25:00 000",400.286,2.27795,13794.4,58.0039
"2014-11-03 02:35:00 000",407.233,1.21053,13849.0,218.540
"2014-11-03 02:45:00 000",408.960,2.29420,14248.4,93.0425
"2014-11-03 02:55:00 000",399.141,4.09805,14224.8,101.154
"2014-11-03 03:05:00 000",395.464,1.39633,14433.4,122.205
"2014-11-03 03:15:00 000",395.118,1.29805,14612.0,42.7488
"2014-11-03 03:25:00 000",394.727,1.08008,14210.6,170.144
"2014-11-03 03:35:00 000",395.617,1.29332,13967.6,69.1100
"2014-11-03 03:45:00 000",395.636,1.04488,13866.7,91.3693
"2014-11-03 03:55:00 000",396.099,1.96030,13913.7,81.9535
"2014-11-03 04:05:00 000",395.481,1.81462,13409.2,220.359
"2014-11-03 04:15:00 000",395.932,1.43016,12908.1,107.870
"2014-11-03 04:25:00 000",400.785,1.20369,12732.6,119.768
"2014-11-03 04:35:00 000",403.236,1.99503,12685.3,137.283
"2014-11-03 04:45:00 000",404.887,0.714625,13011.7,205.131
"2014-11-03 04:55:00 000",403.729,1.03916,12447.6,205.826
"2014-11-03 05:05:00 000",404.854,1.63348,12128.6,119.827
"2014-11-03 05:15:00 000",402.416,2.17187,11829.0,111.052
"2014-11-03 05:25:00 000",401.635,1.49983,11683.6,65.2512
"2014-11-03 05:35:00 000",404.338,1.18700,11647.2,48.9237
"2014-11-03 05:45:00 000",400.735,1.26375,11555.7,77.3324
"2014-11-03 05:55:00 000",401.363,1.43029,11376.6,60.6380
"2014-11-03 06:05:00 000",396.986,1.03903,11262.3,52.3756
"2014-11-03 06:15:00 000",396.607,0.571365,11220.1,33.0893
"2014-11-03 06:25:00 000",397.237,0.618386,11228.8,31.0168
"2014-11-03 06:35:00 000",397.933,0.591213,11230.8,29.4863
"2014-11-03 06:45:00 000",397.886,0.745602,11159.6,34.1086
"2014-11-03 06:55:00 000",397.825,0.581923,11103.2,39.4318
"2014-11-03 07:05:00 000",398.163,0.738766,11125.0,40.2495
"2014-11-03 07:15:00 000",398.123,0.564816,11181.0,31.9378
"2014-11-03 07:25:00 000",398.671,0.843151,11365.7,98.0601
"2014-11-03 07:35:00 000",398.230,0.705843,11544.5,51.4092
"2014-11-03 07:45:00 000",397.720,0.602785,11571.4,32.6315
"2014-11-03 07:55:00 000",397.248,0.560218,11520.8,36.9462
"2014-11-03 08:05:00 000",397.063,0.609071,11615.8,33.4261
"2014-11-03 08:15:00 000",396.524,0.631085,11608.7,75.3361
"2014-11-03 08:25:00 000",395.765,0.627154,11489.6,84.5527
"2014-11-03 08:35:00 000",394.885,0.613415,11391.5,53.4340
"2014-11-03 08:45:00 000",394.159,0.579953,11379.9,64.1644
"2014-11-03 08:55:00 000",393.338,0.752162,11433.5,62.6730
"2014-11-03 09:05:00 000",392.880,0.503484,11395.1,73.0859
"2014-11-03 09:15:00 000",392.630,0.583409,11445.9,80.5896
"2014-11-03 09:25:00 000",392.592,0.532125,11418.5,121.956
"2014-11-03 09:35:00 000",392.248,0.600054,11469.9,73.0858
"2014-11-03 09:45:00 000",392.158,0.942544,11535.8,106.027
"2014-11-03 09:55:00 000",392.226,0.919984,11788.3,95.9484
"2014-11-03 10:05:00 000",392.265,0.624641,11825.8,62.2299
"2014-11-03 10:15:00 000",392.538,0.652199,11981.0,84.9345
"2014-11-03 10:25:00 000",392.746,0.541446,12028.0,94.7519
"2014-11-03 10:35:00 000",392.400,0.541168,12108.4,96.6483
"2014-11-03 10:45:00 000",392.093,0.530938,12243.8,99.2155
"2014-11-03 10:55:00 000",391.866,0.532061,12132.0,112.444
"2014-11-03 11:05:00 000",392.029,0.596427,12025.2,99.7732
"2014-11-03 11:15:00 000",392.408,0.555027,12032.0,82.4275
"2014-11-03 11:25:00 000",392.450,0.643566,12153.2,93.2155
"2014-11-03 11:35:00 000",392.661,0.707247,12241.5,173.264
"2014-11-03 11:45:00 000",392.956,0.646083,12145.7,105.383
"2014-11-03 11:55:00 000",392.771,0.531900,12276.5,91.7578
"2014-11-03 12:05:00 000",392.842,0.770062,12109.6,82.9002
"2014-11-03 12:15:00 000",392.543,0.533727,11782.9,163.854
"2014-11-03 12:25:00 000",392.382,0.600792,11778.0,93.5349
"2014-11-03 12:35:00 000",392.277,0.789963,11852.1,86.0842
"2014-11-03 12:45:00 000",392.536,0.691815,11947.2,119.275
"2014-11-03 12:55:00 000",NaN,NaN,NaN,NaN
"2014-11-03 13:05:00 000",NaN,NaN,NaN,NaN
"2014-11-03 13:15:00 000",NaN,NaN,NaN,NaN
"2014-11-03 13:25:00 000",NaN,NaN,NaN,NaN
"2014-11-03 13:35:00 000",NaN,NaN,NaN,NaN
"2014-11-03 13:45:00 000",392.188,1.29423,10976.9,74.7267
"2014-11-03 13:55:00 000",391.538,0.523028,10961.7,72.5026
"2014-11-03 14:05:00 000",391.452,0.576586,10964.0,100.732
"2014-11-03 14:15:00 000",391.467,0.513355,10815.2,92.7721
"2014-11-03 14:25:00 000",391.838,0.616054,10924.6,83.5394
"2014-11-03 14:35:00 000",391.964,0.581141,11246.4,105.116
"2014-11-03 14:45:00 000",392.232,0.521336,11433.6,56.2361
"2014-11-03 14:55:00 000",392.804,0.635281,11620.3,78.9449
"2014-11-03 15:05:00 000",393.172,0.590805,11816.1,55.0524
"2014-11-03 15:15:00 000",393.264,0.566149,11923.5,46.6900
"2014-11-03 15:25:00 000",393.674,0.605165,12060.3,52.3941
"2014-11-03 15:35:00 000",394.066,0.563091,12215.0,50.2411
"2014-11-03 15:45:00 000",394.416,0.655398,12359.0,45.3358
"2014-11-03 15:55:00 000",394.783,0.830460,12399.0,34.7489
"2014-11-03 16:05:00 000",395.019,0.535935,12432.8,23.6478
"2014-11-03 16:15:00 000",395.051,0.533321,12482.2,33.7578
"2014-11-03 16:25:00 000",394.853,0.587893,12774.4,234.333
"2014-11-03 16:35:00 000",394.186,0.577178,13614.5,135.300
"2014-11-03 16:45:00 000",393.913,0.734157,13800.9,99.0348
"2014-11-03 16:55:00 000",393.807,0.532912,13746.7,80.8330
"2014-11-03 17:05:00 000",394.292,0.580457,13670.7,55.8419
"2014-11-03 17:15:00 000",394.995,0.601861,13461.2,92.1280
"2014-11-03 17:25:00 000",395.659,0.586052,13291.7,29.5312
"2014-11-03 17:35:00 000",396.052,0.598307,13013.3,88.6594
"2014-11-03 17:45:00 000",396.547,0.664506,13027.5,59.5935
"2014-11-03 17:55:00 000",397.765,0.571050,13335.1,88.4995
"2014-11-03 18:05:00 000",397.608,0.560718,13423.7,78.1295
"2014-11-03 18:15:00 000",397.702,0.607293,13140.8,98.0921
"2014-11-03 18:25:00 000",397.865,0.603025,13036.0,49.0647